IRIDIUM 104

Last updated on Fri Sep 11 2026 00:03:06 GMT+0000 (Coordinated Universal Time)

1 41922U 17003F 26253.53657248 .00000140 00000+0 43017-4 0 9990 2 41922 86.3934 52.7689 0002409 95.8353 264.3118 14.34217503505508
UTC large
Height (km)
Speed (km/s)
/
Latitude / Longitude
Inclination (degrees)
Orbital Period (minutes)
Azimuth
Elevation
Range (km)
Doppler Factor

Next 0 passes for location: London (51.5072 / 0.1276)

No passes found over London.
IRIDIUM 104